Regional Weather Roundup
Issued by NWS

Home | Current Version | Previous Version | Graphics & Text | Print | Product List | Glossary On
Versions: 1 2 3 4 5 6 7 8 9 10 11 12 13 14 15 16 17 18 19 20 21 22 23 24 25 26 27 28 29 30 31 32 33 34 35 36 37 38 39 40 41 42 43 44 45 46 47 48 49 50
000
ASUS44 KMEG 101210
RWRTN
TENNESSEE HOURLY STATE WEATHER ROUNDUP
NATIONAL WEATHER SERVICE MEMPHIS TN
600 AM CST SAT DEC 10 2016

TNZ002-004-019-021-049-052-054-088>092-101300-
WEST TENNESSEE

CITY           SKY/WX    TMP DP  RH WIND       PRES   REMARKS
MEMPHIS INTL   CLEAR     24  18  77 E5        30.59R WCI  18
NWS MEMPHIS      N/A     20 N/A N/A MISG        N/A
JACKSON        CLOUDY    17  15  92 CALM      30.60R
DYERSBURG      CLEAR     21  18  86 CALM      30.60R
UNION CITY     CLEAR     16  16 100 CALM      30.59R
PARIS          CLEAR     12  10  92 CALM      30.59R
HUNTINGDON     PTCLDY    18  16  93 CALM      30.59R
LEXINGTON      CLEAR     16  12  86 CALM      30.58R
$$

TNZ008-025-027-028-033-062-065-066-101300-
NORTH MIDDLE TENNESSEE

CITY           SKY/WX    TMP DP  RH WIND       PRES   REMARKS
NASHVILLE      CLEAR     20  15  81 CALM      30.59S
PORTLAND       CLEAR     16  14  93 CALM      30.58R
CLARKSVILLE    CLOUDY    16  12  84 CALM      30.60R
SMYRNA         CLEAR     16  13  88 CALM      30.61R
GALLATIN       CLEAR     16  14  93 N3        30.62R
CROSSVILLE     CLOUDY    14  11  87 CALM      30.50R
$$

TNZ061-075-076-078-094-096-097-101300-
SOUTH MIDDLE TENNESSEE

CITY           SKY/WX    TMP DP  RH WIND       PRES   REMARKS
FAYETTEVILLE   PTCLDY    21  18  86 N5        30.55R WCI  15
TULLAHOMA      CLEAR     16  10  79 CALM      30.54S
WINCHESTER     CLEAR     16  14  93 CALM      30.56R
MCMINNVILLE    CLEAR     16  16 100 CALM        N/A
COLUMBIA       CLEAR     16  16 100 CALM      30.56S
SHELBYVILLE    CLEAR     18  16  93 CALM      30.58R
$$

TNZ017-018-042-046-047-101300-
NORTHEAST TENNESSEE

CITY           SKY/WX    TMP DP  RH WIND       PRES   REMARKS
TRI CITIES     PTCLDY    14  11  87 CALM      30.52R
ELIZABETHTON   CLEAR     14  12  92 CALM      30.51S
$$

TNZ012-013-036-069-073-074-101300-
CENTRAL EAST TENNESSEE

CITY           SKY/WX    TMP DP  RH WIND       PRES   REMARKS
KNOXVILLE      CLEAR     19  15  84 SE3       30.55R
OAK RIDGE      CLEAR     19  14  81 CALM      30.58R
DOWNTOWN KNOXV FOG       21  21 100 CALM      30.58R VSB 1/2
GATLINBURG     CLEAR     14  12  92 CALM      30.56R
MORRISTOWN     PTCLDY    18  16  93 CALM      30.52R
JACKSBORO      CLEAR     14  14 100 CALM      30.58R
$$

TNZ083-085-099-101300-
SOUTHEAST TENNESSEE

CITY           SKY/WX    TMP DP  RH WIND       PRES   REMARKS
CHATTANOOGA    CLEAR     25  18  74 CALM      30.57R
$$

SKY/WX REPORTED AS FAIR MEANS FEW OR NO CLOUDS BELOW
12 THOUSAND FEET.




USA.gov is the U.S. government's official web portal to all federal, state and local government web resources and services.